User: anonymous   Login
Location: Krasnoyarskiy Pitomnik
(51.1333°N, 71.6167°E)
Time: 19:52:57
(UTC+00:00)
Language:

Vanguard 2 Rocket - Orbit

View from above orbital plane
View from above orbital plane
View from above satellite
View from above satellite

Ground track
Ground track

The orbit data is extracted from the following two-line orbital elements,

1 00012U 59001B   24102.83543275  .00001251  00000-0  72580-3 0  9998
2 00012  32.9026 147.6184 1655715 214.0076 134.2644 11.46119126439819
Epoch (UTC): 11 April 2024 20:03:01
Eccentricity: 0.1655715
inclination: 32.9026°
perigee height: 555 km
apogee height: 3307 km
right ascension of ascending node: 147.6184°
argument of perigee: 214.0076°
revolutions per day: 11.46119126
mean anomaly at epoch: 134.2644°
orbit number at epoch: 43981

The dashed part of the orbit path shows where the satellite is in the earth's shadow,  

DLR